SWR93 SBGR-LSZH

Flight info

Callsign SWR93
Flight time N/A
Altitude 33000
Route VUMEV UZ14 ENVOG/N0478F350 UZ14 BUGAT UL206 KODOS/N0473F370 DCT TURUP UA302 ANITI UR975 ARDAR UA854 EBATI/N0458F390 UA854 BRENA UA29 TRB DCT DAAG/N0456F400 DCT RISEP DCT MFB DCT EMMEF DCT BANKO DCT KORED/N0417F260 N871 BERSU
Aircraft A343/H-SDE2E3FGHIJ4J5M1P2RWXY/LB1D1

Departure

Time N/A
Airport São Paulo/Guarulhos–Governor André Franco Montoro International Airport (SBGR)

Arrival

Time 2026-05-04 21:19
Airport Zürich Airport (LSZH)
Time Latitude Longitude Altitude Speed Heading
2026-05-04 20:03 39.00088 4.46775 35205 ft 534 kts 29°
2026-05-04 20:03 39.09138 4.54550 35462 ft 533 kts 29°
2026-05-04 20:04 39.12173 4.57163 35536 ft 532 kts 29°
2026-05-04 20:04 39.18319 4.62462 35661 ft 531 kts 29°
2026-05-04 20:05 39.24453 4.67763 35801 ft 530 kts 29°
2026-05-04 20:05 39.30542 4.73036 35970 ft 529 kts 29°
2026-05-04 20:06 39.36655 4.78341 36111 ft 529 kts 29°
2026-05-04 20:06 39.42757 4.83648 36267 ft 528 kts 29°
2026-05-04 20:07 39.48849 4.88957 36461 ft 527 kts 29°
2026-05-04 20:07 39.54943 4.94278 36595 ft 526 kts 29°
2026-05-04 20:08 39.61328 4.98703 36742 ft 514 kts 15°
2026-05-04 20:08 39.68069 5.01185 36894 ft 504 kts
2026-05-04 20:09 39.74925 5.02998 36973 ft 502 kts
2026-05-04 20:09 39.81787 5.04705 36991 ft 502 kts
2026-05-04 20:10 39.88656 5.06427 36986 ft 503 kts
2026-05-04 20:10 39.95524 5.08175 36984 ft 503 kts
2026-05-04 20:11 40.02404 5.09938 36973 ft 504 kts
2026-05-04 20:11 40.09285 5.11707 36979 ft 504 kts
2026-05-04 20:12 40.16164 5.13478 36990 ft 504 kts
2026-05-04 20:12 40.23048 5.15253 36973 ft 505 kts
2026-05-04 20:13 40.29948 5.17036 36969 ft 505 kts
2026-05-04 20:13 40.36845 5.18822 36993 ft 505 kts
2026-05-04 20:14 40.43749 5.20613 36975 ft 506 kts
2026-05-04 20:14 40.50652 5.22408 36965 ft 506 kts
2026-05-04 20:15 40.57522 5.24198 36967 ft 506 kts
2026-05-04 20:15 40.64425 5.26001 36963 ft 506 kts
2026-05-04 20:16 40.71346 5.27812 36960 ft 506 kts
2026-05-04 20:16 40.78252 5.29623 36960 ft 506 kts
2026-05-04 20:17 40.85157 5.31437 36958 ft 505 kts
2026-05-04 20:17 40.92038 5.33250 36921 ft 504 kts
2026-05-04 20:18 40.98872 5.35054 36958 ft 503 kts
2026-05-04 20:18 41.05743 5.36871 36963 ft 502 kts
2026-05-04 20:19 41.12601 5.38688 36961 ft 502 kts
2026-05-04 20:19 41.19453 5.40507 36958 ft 502 kts
2026-05-04 20:20 41.26307 5.42330 36955 ft 502 kts
2026-05-04 20:20 41.33110 5.44145 36950 ft 502 kts
2026-05-04 20:21 41.39951 5.45974 36958 ft 501 kts
2026-05-04 20:21 41.50219 5.48725 36955 ft 502 kts
2026-05-04 20:22 41.57065 5.50564 36955 ft 502 kts
2026-05-04 20:22 41.63910 5.52408 36956 ft 502 kts
2026-05-04 20:23 41.70767 5.54258 36952 ft 503 kts
2026-05-04 20:23 41.77633 5.56115 36952 ft 503 kts
2026-05-04 20:24 41.84493 5.57975 36952 ft 503 kts
2026-05-04 20:24 41.91318 5.59828 36952 ft 503 kts
2026-05-04 20:25 41.98182 5.61696 36952 ft 503 kts
2026-05-04 20:25 42.05048 5.63568 36957 ft 503 kts
2026-05-04 20:26 42.11926 5.65448 36958 ft 504 kts
2026-05-04 20:26 42.18808 5.67334 36957 ft 504 kts
2026-05-04 20:27 42.25681 5.69222 36961 ft 504 kts
2026-05-04 20:27 42.32551 5.71114 36948 ft 504 kts
2026-05-04 20:28 42.39375 5.72998 36966 ft 503 kts
2026-05-04 20:28 42.46237 5.74897 36965 ft 503 kts
2026-05-04 20:29 42.53095 5.76798 36972 ft 503 kts
2026-05-04 20:29 42.59963 5.78706 36980 ft 503 kts
2026-05-04 20:30 42.66836 5.80619 36985 ft 503 kts
2026-05-04 20:30 42.73661 5.82524 36987 ft 503 kts
2026-05-04 20:31 42.80523 5.84443 36985 ft 503 kts
2026-05-04 20:31 42.87383 5.86365 37011 ft 503 kts
2026-05-04 20:32 42.94253 5.88295 37004 ft 504 kts
2026-05-04 20:32 43.01129 5.90231 37013 ft 504 kts
2026-05-04 20:33 43.08002 5.92171 37032 ft 504 kts
2026-05-04 20:33 43.14877 5.94115 37020 ft 505 kts
2026-05-04 20:34 43.21753 5.96065 37012 ft 505 kts
2026-05-04 20:34 43.28633 5.98020 37029 ft 505 kts
2026-05-04 20:35 43.35514 5.99980 37010 ft 505 kts
2026-05-04 20:35 43.42388 6.01943 37012 ft 505 kts
2026-05-04 20:36 43.49217 6.04374 37016 ft 507 kts 12°
2026-05-04 20:36 43.55942 6.07106 37008 ft 506 kts 12°
2026-05-04 20:37 43.62701 6.09806 37007 ft 506 kts 12°
2026-05-04 20:37 43.69467 6.12437 37016 ft 505 kts 12°
2026-05-04 20:38 43.76225 6.15044 37015 ft 504 kts 12°
2026-05-04 20:38 43.82988 6.17657 37015 ft 504 kts 12°
2026-05-04 20:39 43.89750 6.20279 37017 ft 504 kts 12°
2026-05-04 20:39 43.96491 6.22902 37011 ft 503 kts 12°
2026-05-04 20:40 44.03231 6.25532 37016 ft 503 kts 12°
2026-05-04 20:40 44.09929 6.28151 37012 ft 503 kts 12°
2026-05-04 20:41 44.16711 6.30804 37008 ft 503 kts 12°
2026-05-04 20:41 44.23404 6.33431 37009 ft 503 kts 12°
2026-05-04 20:42 44.30141 6.36082 37010 ft 503 kts 12°
2026-05-04 20:42 44.36868 6.38737 37015 ft 503 kts 12°
2026-05-04 20:43 44.43595 6.41401 37047 ft 502 kts 12°
2026-05-04 20:43 44.50315 6.44061 37042 ft 501 kts 12°
2026-05-04 20:44 44.57032 6.46735 37030 ft 501 kts 12°
2026-05-04 20:44 44.63728 6.49408 37052 ft 498 kts 12°
2026-05-04 20:45 44.69270 6.51623 37077 ft 498 kts 12°
2026-05-04 20:45 44.77010 6.54717 37089 ft 497 kts 13°
2026-05-04 20:46 44.83669 6.57386 37105 ft 498 kts 13°
2026-05-04 20:46 44.89249 6.59632 37108 ft 497 kts 13°
2026-05-04 20:47 44.95900 6.62314 37109 ft 497 kts 13°
2026-05-04 20:47 45.02548 6.65002 37113 ft 497 kts 13°
2026-05-04 20:48 45.09130 6.68104 37106 ft 499 kts 18°
2026-05-04 20:48 45.15533 6.71472 37088 ft 499 kts 18°
2026-05-04 20:49 45.22062 6.74855 37088 ft 498 kts 17°
2026-05-04 20:49 45.28605 6.78187 37077 ft 500 kts 17°
2026-05-04 20:50 45.35160 6.81509 37067 ft 501 kts 17°
2026-05-04 20:50 45.41731 6.84842 37089 ft 501 kts 17°
2026-05-04 20:51 45.48305 6.88185 37094 ft 501 kts 17°
2026-05-04 20:51 45.54876 6.91534 37100 ft 502 kts 17°
2026-05-04 20:52 45.61449 6.94895 37088 ft 502 kts 17°
2026-05-04 20:52 45.67979 6.98246 37081 ft 502 kts 18°
2026-05-04 20:53 45.74555 7.01623 37077 ft 502 kts 17°
2026-05-04 20:53 45.81127 7.04954 37052 ft 500 kts 14°
2026-05-04 20:54 45.87854 7.07462 37061 ft 499 kts 11°
2026-05-04 20:54 45.94601 7.09809 37060 ft 498 kts 11°
2026-05-04 20:55 46.01343 7.12116 37051 ft 497 kts 11°
2026-05-04 20:55 46.08077 7.14426 37042 ft 497 kts 11°
2026-05-04 20:56 46.14814 7.16752 37035 ft 497 kts 11°
2026-05-04 20:56 46.18170 7.17916 36887 ft 496 kts 11°
2026-05-04 20:56 46.21530 7.19082 36623 ft 497 kts 11°
2026-05-04 20:57 46.24896 7.20252 36349 ft 496 kts 11°
2026-05-04 20:57 46.28193 7.21401 35996 ft 491 kts 11°
2026-05-04 20:57 46.31521 7.22560 35321 ft 494 kts 11°
2026-05-04 20:57 46.34875 7.23730 34600 ft 497 kts 11°
2026-05-04 20:58 46.38249 7.24908 33837 ft 500 kts 11°
2026-05-04 20:58 46.41650 7.26095 33006 ft 503 kts 11°
2026-05-04 20:58 46.45070 7.27292 32219 ft 504 kts 11°
2026-05-04 20:58 46.48490 7.28489 31420 ft 507 kts 12°
2026-05-04 20:59 46.51926 7.29693 30595 ft 510 kts 12°
2026-05-04 20:59 46.55388 7.30909 29700 ft 514 kts 12°
2026-05-04 20:59 46.58820 7.32119 28908 ft 514 kts 12°
2026-05-04 20:59 46.62281 7.33339 28329 ft 509 kts 12°
2026-05-04 21:00 46.65710 7.34550 27750 ft 504 kts 12°
2026-05-04 21:00 46.69108 7.35751 27148 ft 500 kts 12°
2026-05-04 21:00 46.72483 7.36946 26577 ft 496 kts 13°
2026-05-04 21:00 46.75824 7.38131 25991 ft 492 kts 12°
2026-05-04 21:01 46.79142 7.39308 25411 ft 489 kts 13°
2026-05-04 21:01 46.82381 7.40745 24851 ft 486 kts 22°
2026-05-04 21:01 46.85327 7.43142 24247 ft 483 kts 38°
2026-05-04 21:01 46.87760 7.46404 23663 ft 479 kts 47°
2026-05-04 21:02 46.89970 7.50029 23005 ft 475 kts 51°
2026-05-04 21:02 46.92036 7.53769 22432 ft 470 kts 53°
2026-05-04 21:02 46.94027 7.57535 21848 ft 466 kts 53°
2026-05-04 21:02 46.95992 7.61295 21268 ft 462 kts 53°
2026-05-04 21:03 46.97941 7.65010 20705 ft 458 kts 53°
2026-05-04 21:03 46.99884 7.68678 20121 ft 454 kts 52°
2026-05-04 21:03 47.01825 7.72304 19591 ft 450 kts 52°
2026-05-04 21:03 47.03759 7.75894 19022 ft 447 kts 52°
2026-05-04 21:04 47.05678 7.79455 18471 ft 444 kts 51°
2026-05-04 21:04 47.07587 7.83001 17894 ft 440 kts 51°
2026-05-04 21:04 47.09474 7.86509 17335 ft 435 kts 52°
2026-05-04 21:04 47.11337 7.89979 16803 ft 430 kts 52°
2026-05-04 21:05 47.13145 7.93457 16265 ft 426 kts 56°
2026-05-04 21:05 47.14580 7.97230 15747 ft 421 kts 64°
2026-05-04 21:05 47.15832 8.01101 15215 ft 417 kts 65°
2026-05-04 21:05 47.17049 8.04943 14689 ft 413 kts 65°
2026-05-04 21:06 47.18256 8.08751 14160 ft 410 kts 65°
2026-05-04 21:06 47.19441 8.12481 13639 ft 407 kts 65°
2026-05-04 21:06 47.20631 8.16242 13075 ft 403 kts 65°
2026-05-04 21:06 47.21807 8.19959 12555 ft 399 kts 66°
2026-05-04 21:07 47.22968 8.23632 12019 ft 395 kts 66°
2026-05-04 21:07 47.24165 8.27267 11514 ft 392 kts 63°
2026-05-04 21:07 47.25474 8.30756 11148 ft 385 kts 61°
2026-05-04 21:07 47.26734 8.34060 11020 ft 371 kts 61°
2026-05-04 21:08 47.27966 8.37322 10914 ft 358 kts 62°
2026-05-04 21:08 47.29148 8.40479 10773 ft 346 kts 62°
2026-05-04 21:08 47.30288 8.43545 10620 ft 337 kts 62°
2026-05-04 21:08 47.31395 8.46534 10482 ft 328 kts 62°
2026-05-04 21:09 47.32472 8.49450 10345 ft 319 kts 62°
2026-05-04 21:09 47.33493 8.52311 10202 ft 311 kts 67°
2026-05-04 21:09 47.34004 8.55345 9949 ft 302 kts 90°
2026-05-04 21:09 47.33901 8.58373 9510 ft 291 kts 98°
2026-05-04 21:10 47.33678 8.61292 9188 ft 278 kts 99°
2026-05-04 21:10 47.33468 8.64015 9040 ft 260 kts 99°
2026-05-04 21:10 47.33266 8.66621 8761 ft 259 kts 99°
2026-05-04 21:10 47.33064 8.69257 8494 ft 258 kts 98°
2026-05-04 21:11 47.32869 8.71878 8267 ft 256 kts 98°
2026-05-04 21:11 47.32678 8.74478 8033 ft 254 kts 98°
2026-05-04 21:11 47.32489 8.77058 7809 ft 252 kts 98°
2026-05-04 21:11 47.32303 8.79627 7565 ft 251 kts 98°
2026-05-04 21:12 47.32116 8.82181 7362 ft 248 kts 98°
2026-05-04 21:12 47.31936 8.84662 7164 ft 239 kts 97°
2026-05-04 21:12 47.32013 8.87063 6973 ft 231 kts 77°
2026-05-04 21:12 47.32718 8.89120 6820 ft 225 kts 50°
2026-05-04 21:13 47.33952 8.90473 6716 ft 227 kts 23°
2026-05-04 21:13 47.35482 8.90970 6595 ft 226 kts
2026-05-04 21:13 47.37052 8.91112 6480 ft 227 kts
2026-05-04 21:13 47.38633 8.91219 6358 ft 227 kts
2026-05-04 21:14 47.40208 8.91299 6224 ft 226 kts 359°
2026-05-04 21:14 47.41732 8.90807 6086 ft 224 kts 331°
2026-05-04 21:14 47.42839 8.89264 5994 ft 218 kts 302°
2026-05-04 21:14 47.43503 8.87260 5936 ft 218 kts 283°
2026-05-04 21:15 47.43707 8.85042 5671 ft 219 kts 271°
2026-05-04 21:15 47.43802 8.82808 5363 ft 216 kts 274°
2026-05-04 21:15 47.43974 8.80620 4986 ft 213 kts 276°
2026-05-04 21:15 47.44134 8.78466 4622 ft 208 kts 275°
2026-05-04 21:16 47.44278 8.76379 4300 ft 200 kts 276°
2026-05-04 21:16 47.44420 8.74395 4004 ft 189 kts 276°
2026-05-04 21:16 47.44554 8.72524 3728 ft 178 kts 276°
2026-05-04 21:16 47.44680 8.70757 3478 ft 168 kts 276°
2026-05-04 21:17 47.44789 8.69118 3260 ft 153 kts 275°
2026-05-04 21:17 47.44883 8.67607 3042 ft 144 kts 276°
2026-05-04 21:17 47.44996 8.66152 2854 ft 142 kts 276°
2026-05-04 21:17 47.45116 8.64687 2663 ft 146 kts 275°
2026-05-04 21:18 47.45221 8.63204 2429 ft 145 kts 275°
2026-05-04 21:18 47.45324 8.61752 2176 ft 143 kts 275°
2026-05-04 21:18 47.45425 8.60289 1937 ft 142 kts 275°
2026-05-04 21:18 47.45535 8.58843 1713 ft 141 kts 275°
2026-05-04 21:19 47.45635 8.57415 1515 ft 139 kts 275°
2026-05-04 21:19 47.45735 8.56024 1420 ft 123 kts 276°
2026-05-04 21:19 47.45805 8.55032 1404 ft 71 kts 276°
2026-05-04 21:19 47.45842 8.54500 1394 ft 40 kts 276°
2026-05-04 21:20 47.45892 8.54281 1407 ft 16 kts 319°
2026-05-04 21:20 47.45953 8.54303 1401 ft 9 kts 66°
2026-05-04 21:20 47.45953 8.54408 1396 ft 13 kts 96°
2026-05-04 21:20 47.45943 8.54549 1398 ft 15 kts 96°
2026-05-04 21:21 47.45931 8.54704 1401 ft 15 kts 96°
2026-05-04 21:21 47.45920 8.54865 1404 ft 16 kts 95°
2026-05-04 21:21 47.45953 8.54995 1403 ft 14 kts 36°
2026-05-04 21:21 47.46044 8.55050 1401 ft 15 kts
2026-05-04 21:22 47.46144 8.55000 1403 ft 16 kts 335°
2026-05-04 21:22 47.46238 8.54952 1398 ft 14 kts
2026-05-04 21:22 47.46289 8.55046 1400 ft 12 kts 89°
2026-05-04 21:22 47.46280 8.55167 1403 ft 11 kts 97°
2026-05-04 21:23 47.46262 8.55271 1406 ft 8 kts 133°
2026-05-04 21:23 47.46213 8.55288 1402 ft 6 kts 179°
2026-05-04 21:23 47.46189 8.55285 1404 ft 0 kts 186°